Theta_e
326 327 328 329 328 330 330 330 330 331 333 332 329 326 327 327 326 325 325 324 324 325 325 323 323 323 324 324 325 325 325 325 324 322 320 321 320 321 324 323 323 323 321 320 321 318 318 316 317 317 317 321 323 322 324 324 325 326 328 329 330 331 332
327 328 329 331 329 330 329 328 329 329 327 326 325 324 324 324 325 323 322 322 322 322 324 322 322 322 322 322 322 323 322 322 323 322 320 319 319 318 319 320 320 320 319 318 319 322 317 315 316 316 317 321 319 319 321 323 324 324 326 327 329 331 331
328 326 327 328 328 327 327 328 327 324 323 322 322 323 323 323 322 322 321 320 320 322 322 320 320 320 320 320 321 321 320 319 319 319 319 318 318 318 318 318 317 317 319 319 319 320 320 317 315 316 317 317 316 318 320 321 322 323 324 324 325 327 329
326 326 326 326 327 327 327 326 324 322 321 320 321 320 320 320 321 321 319 320 320 322 320 318 319 319 319 319 319 319 318 317 317 317 317 317 317 317 317 316 316 317 316 315 315 317 317 317 316 316 317 318 318 317 319 322 322 323 323 324 324 324 326
327 326 326 326 328 328 325 322 320 318 317 318 318 318 318 319 319 317 319 318 318 317 317 317 318 318 319 318 318 317 316 316 317 317 315 315 315 315 315 315 315 316 316 316 317 317 316 316 316 316 316 317 317 317 321 321 322 321 322 323 323 324 325
327 326 327 326 323 323 323 320 317 316 315 315 315 316 316 317 317 316 316 316 316 317 316 316 316 317 317 317 317 316 315 315 315 315 314 314 314 314 314 315 316 315 315 316 318 317 318 317 317 314 315 317 314 315 317 319 317 321 322 322 323 325 326
324 324 323 321 320 319 318 317 316 315 315 314 314 314 316 317 317 317 316 315 315 316 316 316 316 317 317 317 316 315 315 315 315 314 314 314 314 314 314 314 314 314 314 315 316 316 316 315 314 313 312 314 314 313 315 316 319 317 318 321 324 325 325
322 321 320 320 318 317 317 316 315 315 315 315 315 315 316 316 316 316 315 314 315 315 315 315 316 316 316 315 315 315 316 315 315 315 315 315 315 315 316 315 315 314 314 314 313 313 314 314 313 312 311 308 309 311 312 314 314 314 316 321 322 323 323
321 319 318 318 317 317 316 315 314 314 314 314 315 315 315 315 314 314 315 314 314 314 314 315 315 315 315 314 313 313 314 318 315 315 316 315 315 315 314 314 312 311 311 311 311 311 311 311 310 310 310 309 306 305 310 310 311 312 318 315 317 321 321
318 317 316 315 315 315 315 314 314 314 314 314 315 315 315 315 315 314 313 313 313 313 313 314 314 314 314 313 312 312 314 316 316 315 315 314 315 315 313 312 309 309 308 308 307 307 308 308 309 309 310 308 309 306 305 306 308 310 313 314 313 316 317
318 317 316 315 315 314 314 314 314 314 313 314 316 316 314 313 314 315 312 312 311 311 311 313 313 313 313 313 314 315 316 315 314 314 315 314 314 314 312 309 307 305 306 305 304 304 305 306 307 307 308 309 309 307 306 304 306 311 309 312 313 312 314
317 315 315 315 314 314 313 313 313 312 313 314 314 313 313 312 311 310 309 308 308 309 309 310 312 312 312 313 315 315 315 314 312 312 313 314 314 313 309 305 304 304 304 303 302 302 302 302 304 306 306 307 307 308 307 307 304 309 311 308 310 311 311
317 315 314 313 313 312 312 312 312 312 312 313 312 312 311 310 309 308 307 307 307 307 307 308 310 311 313 313 312 312 312 311 311 311 312 313 313 310 306 304 303 303 303 302 301 300 300 300 301 302 304 304 304 305 307 307 306 305 309 308 307 308 309
314 314 313 313 312 312 312 312 311 311 311 311 311 310 309 308 307 306 306 307 305 305 306 307 309 310 311 310 310 310 309 309 309 309 310 310 311 308 305 303 302 302 302 300 299 299 299 298 299 300 301 302 302 303 304 305 306 304 305 306 306 306 307
312 313 312 311 311 311 310 310 311 310 310 310 309 308 307 307 306 305 305 304 304 304 305 305 307 309 309 308 308 310 309 307 305 304 304 305 308 307 304 301 300 300 300 299 298 298 298 297 298 298 299 300 300 301 304 304 307 304 301 303 303 304 304
311 311 310 310 310 310 310 310 310 309 309 309 309 307 306 305 304 304 304 303 303 303 303 303 304 305 305 306 307 306 305 303 302 301 301 302 303 304 302 301 299 299 299 297 297 297 297 297 298 297 298 299 299 300 302 305 306 303 302 301 302 301 302
310 310 309 309 309 309 310 310 310 310 309 307 306 306 305 304 304 303 302 302 301 300 300 300 301 301 302 304 305 303 301 301 300 300 300 300 301 301 300 299 299 298 298 296 296 296 297 297 297 297 298 299 300 300 302 304 307 304 303 300 301 301 302
310 310 309 309 309 310 309 309 310 309 308 306 306 305 305 304 303 302 301 300 299 298 298 298 299 300 301 303 304 302 301 300 299 299 299 299 303 300 299 298 298 298 297 296 296 295 296 296 297 298 298 299 301 302 303 305 304 304 302 300 300 301 302
311 310 310 309 309 309 309 308 308 308 307 306 305 304 304 303 303 301 300 299 298 297 297 297 297 299 301 303 303 302 301 300 299 298 298 298 298 299 298 298 297 297 297 295 295 295 295 295 297 298 300 301 303 304 305 303 303 301 301 300 300 299 301
310 310 310 309 309 308 307 308 308 307 307 305 304 303 303 302 302 300 299 298 297 297 296 296 297 299 301 302 302 301 300 299 298 298 297 297 297 297 297 297 297 298 297 296 295 295 295 295 297 298 301 302 304 304 302 301 300 299 299 298 298 299 299
310 309 308 308 307 307 307 308 308 307 306 304 303 303 302 301 301 300 298 297 297 298 296 297 297 299 301 301 301 300 300 299 297 296 296 296 297 296 297 297 297 298 298 297 296 295 295 295 296 297 299 301 302 302 301 300 299 298 297 296 296 297 298
309 309 309 308 307 307 307 307 307 306 305 305 305 303 303 301 300 298 297 296 296 296 296 296 297 299 300 300 300 300 299 298 297 296 295 295 295 296 296 296 298 298 302 303 301 299 299 299 297 296 297 298 300 300 299 299 298 297 296 296 296 297 297
309 309 308 307 307 306 306 306 305 304 304 303 303 302 301 300 298 297 296 295 295 296 295 296 299 300 302 301 299 300 299 297 295 295 295 294 294 295 295 295 299 303 302 302 299 296 296 297 299 299 297 297 298 298 298 297 296 296 296 295 295 295 294
309 308 307 307 306 305 305 305 304 303 302 301 301 300 298 297 296 296 295 295 294 295 295 296 296 296 298 300 300 298 297 296 294 294 294 293 294 295 294 294 294 298 300 300 298 295 295 295 296 296 297 300 301 298 296 295 295 296 296 295 296 295 294
307 307 308 307 306 305 304 304 303 303 302 300 300 298 297 296 296 295 295 294 294 294 294 296 294 296 297 297 300 299 297 296 295 293 293 293 293 293 294 294 294 295 296 298 296 292 294 295 295 296 296 296 296 296 295 296 295 295 295 295 295 295 295
307 307 307 306 305 304 303 303 302 302 300 300 299 297 296 295 295 294 294 293 293 293 293 295 294 295 296 296 297 299 297 295 294 293 292 292 292 292 292 294 294 294 294 299 297 291 291 292 296 297 298 299 298 298 293 293 294 298 297 296 295 294 294
307 307 306 305 304 303 302 301 301 300 299 298 297 296 295 295 294 294 293 293 292 293 293 295 294 295 296 296 296 297 295 294 294 293 294 293 293 292 292 292 292 292 291 293 293 291 291 291 292 295 296 296 296 298 297 296 295 295 297 297 296 294 295
306 306 305 304 302 301 301 300 299 298 297 296 294 294 293 293 293 293 292 292 293 292 293 293 293 294 294 295 295 296 295 296 294 293 293 293 292 292 292 294 292 291 291 291 294 292 292 291 292 294 294 295 295 296 296 296 296 296 297 298 297 296 296
305 304 303 302 301 300 299 299 298 298 297 296 295 294 293 293 292 291 291 292 292 292 292 293 293 294 294 294 296 298 294 293 293 293 292 292 292 292 292 294 292 291 291 291 294 291 293 294 292 292 293 293 293 294 295 299 296 296 297 297 297 297 296
303 302 301 301 299 299 298 298 298 298 296 294 293 292 292 292 292 291 292 292 292 292 293 293 293 293 293 294 295 295 294 293 293 292 291 292 291 292 293 296 294 291 291 290 292 290 291 295 291 292 292 291 292 292 293 295 296 296 295 294 294 294 293
301 301 301 300 299 298 298 297 297 297 295 294 293 293 293 293 292 292 292 292 293 292 290 292 293 293 293 293 295 293 292 291 289 289 290 291 291 291 294 301 301 292 290 291 291 290 291 294 291 290 290 290 290 290 291 293 296 297 295 295 294 294 294
301 300 300 299 299 298 297 296 296 296 295 294 294 293 294 293 293 293 293 293 297 292 290 292 292 292 292 293 294 291 292 290 290 289 290 291 291 291 291 295 298 295 292 292 290 290 291 293 290 290 290 289 289 289 290 291 293 294 294 294 294 296 296
301 300 300 299 298 297 297 296 295 295 294 294 293 293 293 293 291 290 290 290 292 290 290 290 292 291 292 292 293 292 291 290 291 289 290 293 291 290 290 291 294 292 290 290 290 290 290 291 291 290 290 289 289 289 291 291 294 294 293 293 292 293 294
300 300 300 299 298 297 296 295 294 294 293 293 292 291 292 292 292 290 291 290 291 291 293 290 292 291 292 292 292 292 288 289 288 289 289 289 288 288 289 289 290 293 290 291 290 290 291 291 292 292 290 289 289 291 292 290 292 294 291 293 293 293 293
300 300 300 299 297 296 295 295 294 294 293 292 292 291 290 291 291 290 290 290 290 290 294 295 290 292 291 292 291 292 291 289 289 290 290 289 288 288 288 288 289 292 290 290 290 290 291 291 291 293 290 290 290 290 292 293 290 290 290 291 291 291 292
300 301 300 299 298 296 296 296 295 295 293 293 292 291 291 291 290 290 290 290 288 288 288 292 292 291 291 291 291 291 291 290 291 292 289 288 286 287 287 287 291 293 290 290 290 290 290 291 292 290 290 290 290 290 292 290 290 289 288 289 290 290 290
300 299 299 299 298 297 296 296 296 295 294 294 292 292 290 291 290 289 288 288 288 287 287 287 291 291 290 290 290 290 290 290 290 289 290 288 287 286 288 287 290 290 291 290 290 290 290 290 290 290 290 290 291 291 290 289 288 288 288 288 288 288 289
Wind_Speed
5 4 5 4 3 3 4 4 3 2 2 2 3 4 4 6 7 8 8 8 8 7 7 7 6 5 6 6 5 5 6 6 5 5 5 6 5 5 5 7 6 5 4 0 1 1 6 9 9 3 2 5 6 4 5 6 7 6 7 7 6 7 7
4 4 4 4 5 3 5 3 4 3 4 4 4 5 6 7 7 7 7 7 7 6 6 6 6 6 6 6 7 8 7 7 6 4 6 6 6 5 5 6 5 6 4 3 3 5 3 5 8 6 10 6 3 3 5 5 5 5 7 7 7 6 6
6 5 5 6 5 4 6 5 5 5 5 5 4 5 7 7 7 7 7 7 6 5 6 5 5 6 6 6 5 6 6 7 5 6 6 5 5 5 5 4 6 5 4 5 4 7 3 3 6 9 7 10 12 4 3 5 6 7 7 7 7 6 6
7 7 7 6 6 5 6 5 5 5 4 5 5 6 6 6 6 6 6 5 5 5 6 6 5 5 4 5 5 6 7 7 6 6 6 6 5 6 7 6 6 6 4 5 5 6 6 5 7 7 6 5 7 12 5 5 6 7 6 7 7 6 6
8 7 8 9 7 7 6 7 5 5 5 5 4 5 5 4 5 5 5 5 6 6 6 4 4 4 4 5 6 6 6 6 5 6 6 7 7 6 6 5 5 5 5 5 5 5 5 6 7 7 7 8 6 4 7 8 6 3 6 7 6 7 7
6 6 6 6 5 7 7 7 6 6 5 5 4 5 4 4 5 6 6 6 5 4 4 4 4 5 5 6 6 6 6 7 6 6 7 6 6 6 5 4 5 6 6 5 5 5 5 5 6 7 7 6 7 8 6 6 4 5 4 6 7 7 5
6 6 5 7 6 6 7 7 6 6 6 5 5 5 4 5 5 5 5 5 4 4 5 6 6 6 6 6 6 7 7 5 6 6 6 5 5 5 4 5 5 6 6 6 6 6 7 7 6 7 8 6 5 7 6 5 4 5 3 4 7 7 7
7 7 6 6 7 8 6 7 6 6 6 5 6 4 4 6 5 4 4 5 5 6 7 7 7 7 6 7 6 6 6 6 7 6 6 6 7 7 7 7 6 7 6 6 7 7 7 7 7 7 7 9 6 5 6 4 3 3 6 3 7 5 9
7 7 7 6 6 7 6 7 7 6 5 5 3 4 4 5 4 4 4 5 6 7 7 7 7 7 7 7 6 6 7 5 7 8 6 6 7 8 8 7 7 7 8 7 7 7 7 6 6 6 6 6 8 8 7 6 4 4 4 8 6 4 9
8 8 8 8 8 6 6 6 6 5 4 4 5 4 6 5 5 5 7 8 8 7 6 6 7 7 7 6 6 5 6 7 6 7 6 6 6 6 7 9 8 7 8 7 7 7 6 6 5 5 5 6 7 8 7 6 7 7 6 8 7 7 9
8 8 8 8 7 7 6 5 5 5 4 3 4 4 4 5 8 10 9 8 7 7 6 6 7 6 5 5 5 7 7 6 5 5 5 5 5 5 7 8 7 6 6 6 6 6 6 6 5 5 5 5 6 6 7 7 7 5 8 8 7 9 10
8 8 7 7 6 7 6 6 6 5 5 5 6 5 6 9 9 8 8 7 7 7 7 7 6 5 5 7 7 7 6 5 4 4 4 4 4 6 8 8 7 6 6 6 6 6 6 7 7 6 5 5 6 5 7 7 8 2 5 7 9 9 10
7 7 6 7 7 7 6 6 6 6 5 4 5 7 9 9 9 8 7 7 7 7 7 7 7 6 7 7 6 6 5 4 4 5 5 5 6 7 8 8 7 6 6 5 6 6 6 6 7 7 6 6 5 5 6 7 8 7 6 6 8 10 10
9 7 8 8 8 7 6 6 5 4 5 5 7 9 9 9 8 8 8 7 7 6 7 7 6 6 6 6 5 5 5 5 6 7 6 6 7 9 8 8 7 7 6 6 6 6 6 6 6 6 6 6 6 6 6 7 7 7 7 4 5 8 10
8 8 9 7 8 7 6 6 5 5 5 6 8 9 9 7 7 8 7 7 7 6 6 7 6 5 5 5 6 7 8 9 9 8 8 9 8 7 7 7 8 7 6 6 6 7 6 7 6 6 6 6 6 7 6 6 6 5 9 8 7 7 7
9 9 9 7 7 6 5 5 4 5 5 7 7 8 8 8 8 8 8 7 7 7 7 7 6 6 6 6 7 9 9 8 8 8 9 9 9 7 7 8 8 7 6 6 6 6 6 7 6 6 7 5 6 7 7 7 7 7 8 8 6 8 8
10 8 8 6 6 5 4 4 3 6 7 7 8 7 8 9 9 8 8 7 7 7 7 6 6 6 6 6 8 9 8 8 8 8 8 8 7 7 7 8 7 6 6 7 7 7 7 6 6 6 6 6 6 7 6 6 6 6 7 9 8 8 8
9 9 8 7 7 5 4 3 4 6 8 8 8 8 8 8 9 8 8 7 7 7 6 5 6 6 6 6 8 9 9 8 8 8 7 7 7 7 7 7 6 6 6 7 7 8 7 8 7 6 6 6 6 5 5 5 8 8 8 8 9 6 7
9 9 8 7 7 5 3 4 6 7 8 9 8 8 9 7 7 7 7 6 6 6 5 5 5 5 6 7 8 9 9 8 8 7 7 7 6 6 5 5 5 6 7 8 7 7 7 8 7 7 7 7 7 6 6 8 7 8 8 8 8 10 7
8 8 6 4 4 3 3 5 8 8 7 9 9 9 8 8 6 7 6 6 6 6 5 5 6 6 7 7 8 9 8 7 7 7 6 5 5 5 4 4 6 6 7 7 7 6 6 6 6 6 7 7 7 8 7 7 7 8 7 7 7 7 8
7 6 4 4 4 4 5 8 9 8 8 9 9 9 8 7 5 6 6 6 5 4 5 6 6 6 7 7 8 7 7 7 7 5 5 5 4 4 5 5 5 6 6 6 6 5 4 5 5 5 6 5 6 6 6 6 6 7 7 6 7 8 8
6 5 4 4 5 6 7 9 9 8 9 9 8 8 6 6 6 6 5 5 5 5 7 6 4 5 7 7 6 7 7 6 5 5 4 5 5 5 5 6 5 6 9 11 12 9 9 6 4 6 7 7 7 7 7 7 7 7 7 7 8 7 9
6 4 4 5 6 7 8 9 9 9 9 9 8 7 6 5 5 5 6 6 6 6 6 4 4 8 8 6 5 6 6 5 4 4 5 5 5 5 5 5 6 11 11 10 11 12 12 13 11 7 5 5 6 7 7 8 8 8 8 9 9 10 11
4 3 4 5 6 8 8 8 9 9 9 8 8 6 6 6 5 5 6 6 7 6 5 3 5 10 12 11 6 5 5 4 4 4 4 5 5 5 5 5 4 6 6 6 7 10 11 11 11 11 11 11 8 5 5 7 8 8 8 8 8 9 10
6 5 6 6 7 7 8 9 9 9 9 9 7 6 7 5 4 4 5 6 6 5 4 3 8 10 11 11 8 6 4 4 4 4 4 4 4 4 4 5 4 3 4 5 5 6 8 10 10 10 10 10 10 10 8 5 5 7 9 10 11 10 10
7 7 7 7 7 7 8 9 9 9 9 7 6 7 5 5 5 4 6 7 5 4 3 4 8 9 10 11 10 6 4 4 4 3 3 3 4 4 4 5 5 5 5 10 8 5 5 6 9 11 9 9 9 9 9 10 8 5 5 8 10 11 11
7 7 7 7 7 7 8 8 8 8 8 7 7 6 5 5 4 5 5 6 5 4 3 3 7 9 9 10 10 6 4 3 3 2 2 2 3 4 3 4 5 6 6 6 6 7 5 5 6 6 7 6 6 7 8 9 9 9 7 6 8 9 10
8 8 7 7 7 7 7 8 9 7 7 7 7 6 5 5 4 4 4 5 6 5 3 5 10 10 9 8 8 6 3 3 2 1 2 2 3 4 4 4 4 5 5 6 6 6 5 6 6 7 7 7 7 6 5 5 5 5 6 6 7 7 8
8 7 7 7 7 7 8 9 9 7 7 6 5 5 4 4 5 5 4 6 7 6 3 10 13 12 12 11 9 4 3 2 1 2 3 4 4 4 4 5 5 6 5 5 9 11 8 5 5 6 7 7 8 8 7 6 8 8 7 6 5 6 6
8 7 7 8 8 8 9 9 8 7 8 6 5 5 4 4 4 5 6 6 8 6 6 8 13 12 12 13 8 5 3 2 1 2 3 4 4 5 5 5 5 6 5 5 9 10 11 7 5 6 7 8 8 7 8 8 9 10 12 12 11 10 9
8 8 8 9 8 8 8 7 7 7 8 6 5 4 4 5 4 5 6 7 7 8 5 7 12 13 14 13 8 5 3 3 3 3 5 5 5 6 7 12 9 5 5 5 8 10 9 5 5 6 6 7 8 8 8 8 6 7 10 10 11 11 10
9 9 9 9 9 9 8 8 6 7 7 6 5 5 5 6 6 5 6 6 9 9 6 7 12 12 13 11 7 4 4 3 4 4 5 7 6 6 7 7 11 9 6 6 10 9 9 6 5 5 5 7 8 8 7 6 6 7 8 9 9 10 11
9 10 10 9 8 8 7 7 7 8 7 6 6 4 4 6 7 5 4 5 6 5 6 5 7 11 12 11 8 4 3 5 4 4 4 5 7 7 6 6 7 11 10 10 10 10 10 9 5 5 5 6 6 8 6 6 8 7 6 7 7 7 8
10 9 9 9 8 8 7 8 8 8 7 6 5 5 5 5 6 5 5 5 6 5 5 5 6 11 11 10 8 6 3 3 1 3 4 5 5 5 6 6 5 8 9 10 10 11 11 12 9 6 6 5 4 5 6 6 9 10 6 6 6 7 8
9 8 8 9 9 8 6 8 8 8 7 6 6 5 4 4 6 5 5 5 5 5 6 8 6 10 11 10 9 7 5 1 0 3 6 5 5 5 4 4 4 6 9 10 10 10 11 11 12 7 9 11 13 13 8 6 6 7 8 7 7 7 9
8 7 8 9 10 9 7 8 7 7 7 6 6 6 5 5 6 6 6 5 4 4 5 5 8 6 9 9 9 9 7 5 4 3 5 4 3 4 4 3 4 8 10 9 10 10 10 11 9 9 13 14 13 13 10 7 7 7 7 8 8 8 8
8 7 9 9 9 9 8 7 7 7 7 7 7 6 6 6 6 5 5 5 4 4 3 4 6 6 5 8 8 7 8 9 8 3 2 2 2 4 4 4 4 8 10 10 9 9 10 10 8 12 13 13 13 10 7 7 7 7 7 8 9 9 9
Wind_Direction
156 150 142 135 138 142 135 133 128 121 113 88 67 55 61 66 64 59 57 56 57 50 51 50 49 37 40 31 35 42 48 43 37 44 34 25 41 357 352 9 1 2 359 299 237 281 299 310 312 298 301 316 313 293 293 301 305 310 306 303 289 281 275
115 124 123 129 142 141 126 128 120 109 86 74 77 80 68 66 65 67 63 62 59 54 54 50 45 43 45 40 35 40 44 47 46 49 60 35 36 31 6 10 9 8 342 345 0 8 325 312 298 324 323 314 275 272 309 296 306 306 300 292 287 285 281
129 128 136 142 145 152 134 128 111 100 94 80 68 72 75 69 69 66 66 65 62 60 57 53 49 47 41 47 47 55 53 59 43 50 58 49 50 39 44 25 34 358 21 8 8 346 308 237 294 316 318 321 325 315 303 309 316 309 303 301 303 303 294
151 145 141 143 145 150 132 121 105 92 80 82 76 65 66 72 75 74 76 73 66 61 57 52 51 54 50 57 59 60 55 55 50 55 53 49 49 42 37 39 34 31 21 5 348 347 336 322 318 306 310 310 302 309 326 316 309 306 303 302 312 320 313
154 153 151 150 156 144 129 113 105 96 83 80 74 76 69 80 83 80 80 78 69 64 61 62 56 54 58 63 61 61 60 59 56 56 51 46 39 43 40 30 37 27 23 9 348 339 341 330 316 316 325 328 309 290 315 320 308 305 312 314 324 331 342
144 145 145 133 131 127 123 119 116 107 110 89 87 94 90 87 88 79 74 76 72 70 71 57 45 48 53 63 64 61 57 55 52 54 54 48 45 45 33 25 38 33 22 357 347 352 341 333 334 332 332 327 316 318 321 319 315 329 298 337 343 345 360
132 130 122 117 113 110 116 117 117 119 110 111 107 93 99 87 77 86 92 89 87 69 58 55 53 56 62 64 59 57 55 55 54 54 54 47 45 45 42 39 40 36 27 7 3 0 355 344 346 343 331 328 323 318 314 326 322 344 323 340 358 336 359
118 110 106 112 116 115 116 116 115 116 112 115 106 109 92 85 84 89 89 81 68 62 59 60 62 63 62 62 57 57 58 51 49 44 43 38 39 37 38 40 38 36 25 20 14 7 1 1 354 349 335 335 328 321 321 305 302 342 320 332 354 332 8
107 105 101 100 101 108 114 114 115 111 111 114 107 101 85 92 93 81 72 69 65 63 63 67 68 67 62 62 54 56 61 48 53 48 45 44 44 48 50 46 44 35 28 22 16 10 7 2 357 352 351 347 336 323 330 324 339 313 3 355 327 27 359
111 112 115 110 108 104 106 106 108 108 105 102 103 92 91 92 96 78 58 52 52 52 56 61 69 68 68 63 59 56 64 57 52 47 47 49 45 53 51 48 47 38 33 23 19 12 5 358 358 351 356 349 332 326 332 329 334 328 357 351 337 338 351
106 107 108 109 108 105 97 96 98 92 87 87 88 94 96 79 64 67 69 63 57 55 56 56 62 65 65 60 52 57 62 58 52 49 50 49 46 51 57 54 46 41 23 22 17 2 0 347 345 342 341 334 330 331 327 322 325 343 333 336 340 334 338
102 103 103 102 102 101 98 96 91 94 85 79 84 83 71 70 73 66 68 65 57 55 53 54 48 46 52 60 57 62 61 52 41 49 45 49 47 56 61 53 44 38 17 14 10 3 359 350 342 330 328 330 327 331 324 319 321 342 344 332 334 334 334
101 102 102 104 97 93 94 92 91 84 93 92 88 75 78 78 74 74 66 67 63 55 56 50 49 48 58 58 54 58 49 39 37 38 45 53 60 63 59 49 37 29 15 12 9 2 357 351 343 335 334 331 323 326 319 312 317 324 339 344 326 322 336
93 92 91 90 91 89 85 85 84 94 87 89 76 76 77 77 76 77 71 65 65 57 56 53 43 49 62 70 61 54 35 30 40 37 33 45 64 66 58 48 34 24 16 16 5 358 357 347 343 338 333 333 325 326 330 321 322 335 316 335 320 329 330
90 91 91 87 89 87 84 81 92 88 86 64 81 87 83 81 81 78 77 67 60 56 53 52 39 40 46 54 54 47 48 47 48 44 40 38 50 60 56 46 33 21 15 11 2 1 353 348 345 340 341 336 330 324 327 321 314 325 317 327 331 327 322
95 93 92 87 88 87 87 96 99 94 72 81 78 83 87 84 82 79 73 63 56 53 48 48 36 39 39 41 58 65 59 56 53 51 47 42 41 41 42 39 29 19 8 9 6 356 352 349 341 340 335 331 328 322 322 321 314 325 325 326 330 325 325
95 94 90 90 90 89 99 112 99 69 81 87 82 75 79 83 78 73 68 60 54 50 47 43 43 40 42 49 71 73 68 61 57 52 50 45 40 41 40 35 24 15 8 12 6 1 354 347 345 338 334 334 328 328 320 319 325 331 329 322 329 323 318
100 97 98 98 100 104 122 112 81 90 96 89 88 85 77 75 75 69 68 64 60 54 47 44 46 44 48 61 77 76 68 63 56 53 51 46 44 44 39 36 16 13 16 17 9 4 353 354 346 341 342 339 336 326 320 334 349 344 333 324 317 310 309
98 100 101 106 119 134 123 85 83 94 96 92 86 83 83 73 75 75 71 68 67 65 55 52 54 57 64 76 80 74 67 61 56 55 50 48 45 37 41 30 18 20 22 22 6 357 354 349 344 349 354 353 351 333 345 359 352 345 337 327 318 317 318
99 98 95 94 86 82 81 89 99 100 98 98 96 92 85 83 72 77 73 69 65 65 66 61 64 66 71 75 77 75 69 62 58 55 49 45 36 29 26 22 22 20 25 20 9 356 345 347 343 349 3 1 8 11 3 354 352 344 341 328 322 318 318
101 96 93 79 76 77 86 101 106 102 98 96 95 93 92 89 79 72 69 71 68 72 75 71 70 75 75 78 77 74 70 68 63 55 50 40 32 28 17 11 14 16 16 17 11 355 358 346 340 353 356 358 4 8 358 351 346 342 335 333 329 333 332
101 105 96 90 90 89 98 106 107 105 100 97 93 91 88 85 83 76 71 71 72 67 70 68 70 80 86 78 78 75 72 70 67 66 51 40 31 24 18 11 1 12 11 11 7 3 359 6 11 0 355 357 360 359 356 351 348 342 338 335 332 336 334
105 103 86 89 90 98 104 106 103 97 93 91 91 87 81 73 71 73 74 67 64 65 61 59 58 82 92 96 84 81 80 75 74 68 59 45 31 23 14 7 352 5 2 358 2 1 2 4 7 14 7 10 4 4 0 355 352 349 343 341 343 340 341
135 99 91 94 98 100 101 101 98 95 93 92 89 88 84 79 73 69 71 73 68 63 60 55 90 101 99 98 96 94 91 84 74 65 61 52 37 18 7 355 345 349 351 351 352 352 352 356 357 356 2 7 16 27 14 6 1 351 347 338 338 340 339
130 115 109 107 106 103 101 101 102 103 102 96 92 90 83 80 79 75 76 71 69 68 68 68 110 104 104 104 106 102 99 91 81 70 61 48 30 16 3 356 349 342 338 358 9 350 342 340 343 341 344 351 354 9 13 30 8 2 357 351 350 345 338
125 117 118 120 113 104 100 101 103 103 100 102 98 88 88 83 74 72 75 76 71 63 70 65 111 113 114 114 113 110 100 102 92 84 62 46 23 6 1 1 2 1 346 1 4 350 340 333 336 336 336 337 335 352 354 1 10 12 356 359 356 348 348
121 122 125 121 112 106 98 95 100 100 100 96 94 90 82 82 79 76 78 80 78 63 62 47 115 117 123 122 123 117 114 100 92 76 51 13 1 1 355 7 8 3 353 358 357 351 341 341 338 339 342 339 334 331 337 348 351 354 2 6 357 352 344
123 130 126 116 106 97 91 95 97 98 100 102 100 100 100 94 85 80 79 83 78 65 33 83 89 83 82 92 99 102 89 73 50 5 317 301 322 346 351 359 13 15 357 353 359 349 348 345 347 352 351 346 339 334 327 327 344 341 345 352 356 352 342
131 128 117 110 102 99 102 106 107 107 100 92 89 93 84 89 93 87 82 83 82 73 51 85 88 88 93 97 96 82 76 60 21 332 321 329 346 355 0 8 13 11 4 353 348 352 3 355 5 2 358 354 354 352 352 332 327 336 339 334 333 336 337
128 121 121 114 109 111 113 111 108 109 101 102 106 102 105 98 101 99 89 85 88 78 58 69 85 87 89 92 86 80 74 55 349 340 332 336 350 1 6 12 21 13 5 0 345 358 2 15 20 9 6 6 5 6 359 347 339 336 342 342 334 328 326
126 128 123 122 122 120 117 114 119 119 116 122 115 120 115 102 94 97 94 89 89 87 66 55 77 80 83 82 88 86 67 59 11 349 342 356 2 4 1 9 23 20 10 357 357 11 4 18 30 15 15 14 13 9 356 344 341 340 343 344 339 342 345
129 128 125 127 127 127 128 128 127 117 118 122 125 122 111 105 98 86 91 95 90 87 79 59 63 71 74 77 81 78 79 69 40 7 5 3 3 11 2 0 10 18 14 9 19 22 21 26 34 21 16 23 15 9 345 333 346 342 346 349 348 348 356
130 129 129 128 128 128 127 122 129 124 127 132 131 123 111 104 99 93 89 85 79 80 79 62 58 68 71 67 72 81 57 67 39 19 19 25 9 357 359 358 359 6 10 22 27 30 33 32 35 20 20 28 15 1 328 346 346 346 338 348 334 338 341
131 131 133 134 132 129 132 134 133 128 134 130 121 115 109 105 97 86 73 70 70 56 66 68 47 57 68 67 61 79 80 88 87 53 41 27 15 357 347 344 333 360 13 32 35 33 35 34 31 30 24 24 8 330 350 1 342 347 341 340 340 340 349
130 133 134 131 131 132 137 134 135 138 138 134 129 122 115 103 98 85 66 60 64 60 52 61 63 51 63 68 67 71 75 39 2 56 42 25 4 359 331 317 325 346 28 35 35 34 32 35 34 35 19 18 10 9 4 353 348 350 348 348 343 349 358
129 132 138 138 138 144 148 145 145 142 141 137 131 129 124 120 103 94 76 55 50 51 50 54 62 67 61 66 65 66 69 60 26 65 71 34 329 304 300 303 324 8 37 29 29 31 32 28 33 27 24 20 17 9 6 1 358 358 358 0 1 359 357
128 129 136 139 142 148 156 155 151 151 148 140 137 132 136 123 111 100 93 78 46 38 34 57 49 56 62 58 55 55 56 46 39 27 75 50 309 286 313 330 334 24 36 28 23 21 27 32 29 26 23 19 19 15 9 5 3 1 1 6 13 8 3